{"data":{"norad_id":58941,"epoch":"2026-09-20T01:02:56.911200Z","epoch_age_seconds":195080,"freshness":"STALE","line1":"1 58941U 24027L   26263.04371425  .00000758  00000+0  33573-4 0  9991","line2":"2 58941  53.1603 125.5320 0001271  81.3694 278.7452 15.34392853147108","mean_motion":15.34392853,"eccentricity":0.0001271,"inclination_deg":53.1603,"raan_deg":125.532,"arg_perigee_deg":81.3694,"mean_anomaly_deg":278.7452,"bstar":3.3573e-5,"rev_number":14710,"period_min":93.848195211843,"perigee_km":461.85500918527,"apogee_km":463.59395617417,"semimajor_km":6840.8614826797,"source":"CELESTRAK","updated_at":"2026-09-21T09:00:33.998045Z"}}